| time (UTC) | temp C | wind direction | speed KPH | gust KPH | rain 1hr cm | rain 24hr cm | rain mn cm | humidity % | barometer mb |
| 20260506061548 | 23 | 226 | 12.9 | 29.0 | 0.00 | 0.00 | 0.00 | 88 | 1007.8 |
| 20260506044551 | 23 | 198 | 9.7 | 16.1 | 0.00 | 0.00 | 0.00 | 88 | 1007.8 |
| 20260506043050 | 23 | 241 | 8.0 | 17.7 | 0.00 | 0.00 | 0.00 | 88 | 1007.8 |
| 20260506041554 | 23 | 174 | 3.2 | 11.3 | 0.00 | 0.00 | 0.00 | 88 | 1007.7 |
| 20260506040052 | 24 | 234 | 9.7 | 16.1 | 0.00 | 0.00 | 0.00 | 87 | 1007.5 |
| 20260506034549 | 24 | 166 | 6.4 | 14.5 | 0.00 | 0.00 | 0.00 | 86 | 1007.5 |
| 20260506033101 | 24 | 164 | 11.3 | 19.3 | 0.00 | 0.00 | 0.00 | 85 | 1007.0 |
| 20260506031547 | 25 | 186 | 8.0 | 19.3 | 0.00 | 0.00 | 0.00 | 84 | 1007.1 |
| 20260506030057 | 25 | 175 | 6.4 | 9.7 | 0.00 | 0.00 | 0.00 | 83 | 1006.7 |
| 20260506024547 | 25 | 174 | 6.4 | 14.5 | 0.00 | 0.00 | 0.00 | 83 | 1006.7 |
| 20260506023044 | 25 | 188 | 3.2 | 11.3 | 0.00 | 0.00 | 0.00 | 82 | 1006.5 |
| 20260506021557 | 25 | 179 | 4.8 | 9.7 | 0.00 | 0.00 | 0.00 | 81 | 1006.2 |
| 20260506020048 | 25 | 0 | 0.0 | 11.3 | 0.00 | 0.00 | 0.00 | 80 | 1006.0 |
| 20260506014547 | 26 | 206 | 3.2 | 11.3 | 0.00 | 0.00 | 0.00 | 79 | 1005.7 |
| 20260506013048 | 26 | 196 | 6.4 | 14.5 | 0.00 | 0.00 | 0.00 | 78 | 1005.6 |
| 20260506011607 | 26 | 220 | 6.4 | 16.1 | 0.00 | 0.00 | 0.00 | 76 | 1005.6 |
| 20260506010046 | 26 | 202 | 8.0 | 14.5 | 0.00 | 0.00 | 0.00 | 75 | 1005.5 |
| 20260506004546 | 27 | 236 | 6.4 | 17.7 | 0.00 | 0.00 | 0.00 | 74 | 1005.5 |
| 20260506003042 | 27 | 224 | 6.4 | 20.9 | 0.00 | 0.00 | 0.00 | 72 | 1005.6 |
| 20260506001547 | 27 | 216 | 6.4 | 22.5 | 0.00 | 0.00 | 0.00 | 72 | 1005.5 |
| 20260506000054 | 27 | 224 | 12.9 | 20.9 | 0.00 | 0.00 | 0.00 | 71 | 1005.6 |
| 20260505234544 | 27 | 220 | 9.7 | 19.3 | 0.00 | 0.00 | 0.00 | 71 | 1005.5 |
| 20260505233042 | 27 | 233 | 9.7 | 22.5 | 0.00 | 0.00 | 0.00 | 70 | 1005.3 |
| 20260505231543 | 27 | 186 | 11.3 | 22.5 | 0.00 | 0.00 | 0.00 | 69 | 1005.3 |
| 20260505230041 | 27 | 214 | 12.9 | 24.1 | 0.00 | 0.00 | 0.00 | 69 | 1005.2 |
| 20260505224543 | 28 | 238 | 11.3 | 20.9 | 0.00 | 0.00 | 0.00 | 68 | 1005.1 |
| 20260505223045 | 28 | 213 | 12.9 | 22.5 | 0.00 | 0.00 | 0.00 | 67 | 1005.1 |
| 20260505221554 | 28 | 180 | 11.3 | 24.1 | 0.00 | 0.00 | 0.00 | 69 | 1004.8 |
| 20260505220055 | 28 | 203 | 11.3 | 20.9 | 0.00 | 0.00 | 0.00 | 69 | 1005.0 |
| 20260505214552 | 28 | 224 | 8.0 | 22.5 | 0.00 | 0.00 | 0.00 | 69 | 1005.2 |
| 20260505213048 | 28 | 202 | 12.9 | 25.7 | 0.00 | 0.00 | 0.00 | 68 | 1005.3 |
| 20260505211545 | 28 | 151 | 11.3 | 25.7 | 0.00 | 0.00 | 0.00 | 68 | 1005.4 |
| 20260505210053 | 28 | 219 | 4.8 | 19.3 | 0.00 | 0.00 | 0.00 | 68 | 1005.7 |
| 20260505204555 | 28 | 248 | 9.7 | 22.5 | 0.00 | 0.00 | 0.00 | 68 | 1005.8 |
| 20260505203049 | 28 | 217 | 6.4 | 25.7 | 0.00 | 0.00 | 0.00 | 69 | 1005.9 |
| 20260505201550 | 28 | 193 | 9.7 | 22.5 | 0.00 | 0.00 | 0.00 | 68 | 1006.2 |
| 20260505200046 | 27 | 176 | 9.7 | 24.1 | 0.00 | 0.00 | 0.00 | 69 | 1006.4 |
| 20260505194556 | 27 | 244 | 17.7 | 27.4 | 0.00 | 0.00 | 0.00 | 69 | 1006.5 |
| 20260505193044 | 27 | 231 | 9.7 | 25.7 | 0.00 | 0.00 | 0.00 | 70 | 1006.8 |
| 20260505191548 | 26 | 207 | 8.0 | 27.4 | 0.00 | 0.00 | 0.00 | 70 | 1006.9 |
| 20260505190046 | 26 | 0 | 6.4 | 20.9 | 0.00 | 0.00 | 0.00 | 72 | 1007.1 |
| 20260505184552 | 26 | 273 | 4.8 | 27.4 | 0.00 | 0.00 | 0.00 | 71 | 1007.1 |
| 20260505183051 | 26 | 210 | 1.6 | 12.9 | 0.00 | 0.00 | 0.00 | 74 | 1007.5 |
| 20260505181544 | 25 | 219 | 12.9 | 25.7 | 0.00 | 0.00 | 0.00 | 77 | 1007.7 |
| 20260505180046 | 25 | 330 | 3.2 | 14.5 | 0.00 | 0.00 | 0.00 | 78 | 1007.8 |
| 20260505174548 | 24 | 253 | 6.4 | 24.1 | 0.00 | 0.00 | 0.00 | 79 | 1008.2 |
| 20260505173039 | 23 | 336 | 12.9 | 27.4 | 0.00 | 0.00 | 0.00 | 81 | 1008.1 |
| 20260505171548 | 23 | 250 | 9.7 | 20.9 | 0.00 | 0.00 | 0.00 | 81 | 1008.2 |
| 20260505170046 | 23 | 338 | 8.0 | 24.1 | 0.00 | 0.00 | 0.00 | 83 | 1008.2 |
| 20260505164554 | 22 | 250 | 9.7 | 20.9 | 0.00 | 0.00 | 0.00 | 84 | 1008.3 |
| 20260505163043 | 22 | 263 | 9.7 | 19.3 | 0.00 | 0.00 | 0.00 | 85 | 1008.2 |
| 20260505161555 | 22 | 294 | 9.7 | 24.1 | 0.00 | 0.00 | 0.00 | 86 | 1008.3 |
| 20260505153050 | 22 | 283 | 3.2 | 17.7 | 0.00 | 0.00 | 0.00 | 87 | 1008.3 |
| 20260505151543 | 21 | 188 | 9.7 | 20.9 | 0.00 | 0.00 | 0.00 | 88 | 1008.3 |
| 20260505124550 | 21 | 250 | 12.9 | 27.4 | 0.00 | 0.00 | 0.00 | 88 | 1006.9 |
| 20260505123049 | 21 | 226 | 12.9 | 22.5 | 0.00 | 0.00 | 0.00 | 89 | 1006.7 |
| 20260505121552 | 20 | 208 | 16.1 | 25.7 | 0.00 | 0.00 | 0.00 | 89 | 1006.4 |
| 20260505120100 | 20 | 229 | 16.1 | 29.0 | 0.00 | 0.00 | 0.00 | 90 | 1006.1 |
| 20260505114547 | 20 | 222 | 19.3 | 29.0 | 0.00 | 0.00 | 0.00 | 89 | 1005.9 |
| 20260505113058 | 20 | 239 | 16.1 | 30.6 | 0.00 | 0.00 | 0.00 | 89 | 1006.2 |
| 20260505111542 | 20 | 231 | 14.5 | 27.4 | 0.00 | 0.00 | 0.00 | 89 | 1006.2 |
| 20260505101543 | 21 | 240 | 14.5 | 24.1 | 0.00 | 0.00 | 0.00 | 88 | 1006.5 |
| 20260505100043 | 21 | 212 | 11.3 | 22.5 | 0.00 | 0.00 | 0.00 | 88 | 1006.6 |
| 20260505094542 | 21 | 261 | 12.9 | 27.4 | 0.00 | 0.00 | 0.00 | 88 | 1006.7 |
| 20260505093051 | 21 | 239 | 9.7 | 20.9 | 0.00 | 0.00 | 0.00 | 88 | 1006.9 |
| 20260505091543 | 21 | 229 | 12.9 | 22.5 | 0.00 | 0.00 | 0.00 | 88 | 1006.9 |
| 20260505090047 | 21 | 233 | 11.3 | 25.7 | 0.00 | 0.00 | 0.00 | 88 | 1007.0 |
| 20260505084551 | 21 | 235 | 17.7 | 30.6 | 0.00 | 0.00 | 0.00 | 87 | 1007.1 |
| 20260505083052 | 21 | 219 | 14.5 | 27.4 | 0.00 | 0.00 | 0.00 | 87 | 1007.1 |
| 20260505081551 | 21 | 234 | 14.5 | 25.7 | 0.00 | 0.00 | 0.00 | 87 | 1007.2 |
| 20260505080048 | 21 | 235 | 17.7 | 30.6 | 0.00 | 0.00 | 0.00 | 87 | 1007.4 |
| 20260505074542 | 21 | 226 | 16.1 | 32.2 | 0.00 | 0.00 | 0.00 | 87 | 1007.5 |
| 20260505073100 | 21 | 217 | 14.5 | 29.0 | 0.00 | 0.00 | 0.00 | 87 | 1007.6 |
| 20260505071540 | 21 | 252 | 16.1 | 32.2 | 0.00 | 0.00 | 0.00 | 87 | 1007.8 |